GOKTURK 1A

Last updated on Sun Jul 06 2025 00:02:28 GMT+0000 (Coordinated Universal Time)

1 41875U 16073A 25186.57424901 .00000291 00000+0 66183-4 0 9995 2 41875 98.1114 81.1561 0001466 85.1164 275.0205 14.62742750458157
UTC large
Height (km)
Speed (km/s)
/
Latitude / Longitude
Inclination (degrees)
Orbital Period (minutes)
Azimuth
Elevation
Range (km)
Doppler Factor

Next 0 passes for location: London (51.5072 / 0.1276)

Sorry there are no passes over London.